Location: Blanot
(47.1713°N, 4.2340°E)
Time: 04:37:43
(UTC+00:00)

Resurs 1-4 Rocket - Pass Details

Date: 14 July 2020
Orbit: 800 x 814 km, 98.6° (Epoch: 06 August)

Event Time Altitude Azimuth Distance (km) Brightness Sun altitude
Rises 01:21:46 0° 15° (NNE) 3,348 7.0 -18.1°
Reaches altitude 10° 01:24:08 10° 16° (NNE) 2,411 5.8 -17.9°
Maximum altitude 01:29:29 79° 103° (ESE) 831 2.1 -17.6°
Enters shadow 01:32:21 28° 188° (S) 1,472 2.9 -17.4°
